Change the Weather History Date:

Tuesday, February 26, 2013

  Actual Average Record
Temperature  
Mean Temperature 43 °F -  
Max Temperature 51 °F 44 °F 69 °F (1976)
Min Temperature 35 °F 26 °F 5 °F (1963)
Degree Days  
Heating Degree Days 22    
Moisture  
Dew Point 40 °F    
Average Humidity 86    
Maximum Humidity 94    
Minimum Humidity 55    
Precipitation  
Precipitation 0.12 in - - ()
Sea Level Pressure  
Sea Level Pressure 29.53 in    
Wind  
Wind Speed 8 mph (ESE)    
Max Wind Speed 24 mph    
Max Gust Speed 37 mph    
Visibility 9 miles    
Events Rain    
Averages and records for this station are not official NWS values.
T = Trace of Precipitation, MM = Missing Value Source: NWS Daily Summary

Daily Weather History Graph

Daily Weather History Graph

Search for Another Location

Airport or City:

Trip Planner

Search our weather history database for the weather conditions in past years. The results will help you decide how hot, cold, wet, or windy it might be!

Date:

Astronomy

Feb. 26, 2013 Rise Set
Actual Time 7:14 AM EST 6:27 PM EST
Civil Twilight 6:47 AM EST 6:54 PM EST
Nautical Twilight 6:16 AM EST 7:25 PM EST
Astronomical Twilight 5:45 AM EST 7:56 PM EST
Moon 7:42 PM EST (2/26) 7:17 AM EST (2/26)
Length of Visible Light 12h 06m
Length of Day
11h 13m
Full, 99% of the Moon is Illuminated
Feb 26
Full
Mar 4
Last Quarter
Mar 11
New
Mar 19
First Quarter
Mar 27
Full

Hourly Weather History & Observations

Time (EST) Temp. Windchill Dew Point Humidity Pressure Visibility Wind Dir Wind Speed Gust Speed Precip Events Conditions
12:53 AM 35.1 °F 29.3 °F 24.1 °F 64% 29.90 in 10.0 mi NE 6.9 mph - N/A   Clear
1:53 AM 37.0 °F 31.0 °F 24.1 °F 59% 29.85 in 10.0 mi NE 8.1 mph - N/A   Mostly Cloudy
2:53 AM 37.9 °F 33.5 °F 23.0 °F 55% 29.82 in 10.0 mi NE 5.8 mph - N/A   Partly Cloudy
3:53 AM 37.9 °F 31.5 °F 24.1 °F 57% 29.76 in 10.0 mi NE 9.2 mph - N/A   Mostly Cloudy
4:53 AM 39.0 °F 34.0 °F 25.0 °F 57% 29.73 in 10.0 mi ENE 6.9 mph - N/A   Overcast
5:53 AM 37.0 °F 34.5 °F 32.0 °F 82% 29.72 in 9.0 mi NNE 3.5 mph - 0.01 in Rain Light Rain
6:53 AM 37.0 °F 32.4 °F 33.1 °F 86% 29.69 in 9.0 mi NE 5.8 mph - 0.04 in Rain Light Rain
7:53 AM 37.0 °F 31.0 °F 34.0 °F 89% 29.64 in 10.0 mi NE 8.1 mph - 0.00 in Rain Light Rain
8:53 AM 39.0 °F 33.4 °F 35.1 °F 86% 29.61 in 9.0 mi ENE 8.1 mph - 0.00 in Rain Light Rain
9:53 AM 41.0 °F 34.3 °F 37.0 °F 86% 29.57 in 10.0 mi ENE 11.5 mph - 0.01 in Rain Light Rain
10:53 AM 44.1 °F 40.1 °F 41.0 °F 89% 29.53 in 10.0 mi East 6.9 mph - 0.01 in   Overcast
11:23 AM 44.6 °F 41.4 °F 42.8 °F 93% 29.51 in 10.0 mi Variable 5.8 mph - 0.01 in   Overcast
11:53 AM 46.0 °F 40.6 °F 41.0 °F 83% 29.50 in 10.0 mi East 11.5 mph - 0.01 in   Overcast
12:53 PM 46.9 °F - 44.1 °F 90% 29.47 in 10.0 mi NE 5.8 mph - 0.03 in Rain Light Rain
1:10 PM 48.2 °F - 44.6 °F 87% 29.45 in 10.0 mi NNE 6.9 mph - 0.00 in Rain Light Rain
1:34 PM 48.2 °F - 46.4 °F 93% 29.43 in 10.0 mi ENE 4.6 mph - 0.00 in Rain Light Rain
1:53 PM 50.0 °F - 46.9 °F 89% 29.42 in 10.0 mi East 5.8 mph - 0.00 in Rain Light Rain
2:44 PM 50.0 °F - 46.4 °F 87% 29.40 in 4.0 mi NE 4.6 mph - N/A Rain Light Rain
2:53 PM 50.0 °F - 46.9 °F 89% 29.40 in 4.0 mi NE 3.5 mph - N/A Rain Rain
3:37 PM 50.0 °F - 48.2 °F 94% 29.39 in 1.8 mi ESE 3.5 mph - N/A Rain Light Rain
3:44 PM 50.0 °F - 48.2 °F 94% 29.39 in 2.5 mi SSW 4.6 mph - N/A Rain Light Rain
3:53 PM 50.0 °F - 48.0 °F 93% 29.39 in 10.0 mi Variable 6.9 mph - N/A Rain Light Rain
4:17 PM 50.0 °F - 48.2 °F 94% 29.38 in 4.0 mi SE 6.9 mph - 0.01 in Rain Light Rain
4:53 PM 51.8 °F - 48.2 °F 88% 29.39 in 10.0 mi SSE 8.1 mph - N/A Rain Light Rain
5:29 PM 50.0 °F - 48.2 °F 94% 29.39 in 9.0 mi South 5.8 mph - 0.00 in Rain Light Rain
5:53 PM 48.0 °F - 44.1 °F 86% 29.43 in 9.0 mi WSW 24.2 mph 36.8 mph 0.00 in Rain Light Rain
6:04 PM 48.2 °F - 44.6 °F 87% 29.44 in 10.0 mi West 17.3 mph - 0.00 in Rain Light Rain
6:53 PM 46.0 °F 43.1 °F 43.0 °F 89% 29.47 in 10.0 mi WSW 5.8 mph - 0.00 in Rain Light Rain
7:43 PM 44.6 °F 40.2 °F 42.8 °F 93% 29.49 in 10.0 mi SSW 8.1 mph - 0.00 in   Overcast
7:53 PM 45.0 °F 40.6 °F 43.0 °F 93% 29.50 in 10.0 mi SSW 8.1 mph - 0.00 in   Overcast
8:44 PM 44.6 °F 39.7 °F 42.8 °F 93% 29.51 in 10.0 mi SSW 9.2 mph - N/A   Overcast
8:53 PM 45.0 °F 39.7 °F 42.1 °F 90% 29.52 in 10.0 mi SW 10.4 mph - N/A   Overcast
9:18 PM 44.6 °F 39.2 °F 42.8 °F 93% 29.52 in 10.0 mi SSW 10.4 mph - N/A   Overcast
9:28 PM 44.6 °F 38.8 °F 42.8 °F 93% 29.52 in 10.0 mi SSW 11.5 mph - N/A   Overcast
9:53 PM 45.0 °F 38.5 °F 42.1 °F 90% 29.53 in 10.0 mi SSW 13.8 mph - 0.00 in Rain Light Rain
10:53 PM 43.0 °F 36.4 °F 41.0 °F 93% 29.55 in 9.0 mi SSW 12.7 mph - 0.01 in Rain Light Rain
11:53 PM 42.1 °F 35.7 °F 39.9 °F 92% 29.55 in 10.0 mi SSW 11.5 mph - 0.00 in Rain Light Rain